Regional Weather Roundup
Issued by NWS Portland, ME

Current Version | Previous Version | Text Only | Print | Product List | Glossary Off
Versions: 1 2 3 4 5 6 7 8 9 10 11 12 13 14 15 16 17 18 19 20 21 22 23 24 25 26 27 28 29 30 31 32 33 34 35 36 37 38 39 40 41 42 43 44 45 46 47 48 49 50

000
ASUS41 KGYX 090310
RWRGYX
WEATHER ROUNDUP FOR MAINE AND NEW HAMPSHIRE
NATIONAL WEATHER SERVICE GRAY ME
1000 PM EST THU DEC 08 2016

MEZ002-005-006-010-012-015-018-020-021-024-026-027-029-090400-
MAINE

CITY           SKY/WX    TMP DP  RH WIND       PRES   REMARKS
PORTLAND       CLEAR     32  24  72 W9        29.75S
SANFORD        CLEAR     32  23  69 W10       29.76S
BAR HARBOR     CLEAR     31  26  82 W3        29.69S
WISCASSET      CLEAR     28  25  88 CALM      29.73F
ROCKLAND       CLEAR     31  28  89 NW3       29.71S
FRYEBURG       CLEAR     25  20  81 W3        29.72S
LEWISTONAUBURN CLEAR     27  25  92 CALM      29.72S
AUGUSTA        CLEAR     29  24  82 VRB3      29.70F
WATERVILLE     CLEAR     29  24  82 SW8       29.65F
BANGOR         PTCLDY    25  23  92 CALM      29.67F
GREENVILLE       N/A     22  18  85 CALM      29.56F
MILLINOCKET    CLEAR     27  20  75 CALM      29.62F
HOULTON        CLEAR     27  25  92 S6        29.57F
PRESQUE ISLE   PTCLDY    25  21  85 SW5       29.56F
FRENCHVILLE    PTCLDY    25  20  81 W8        29.49F
CARIBOU        PTCLDY    25  21  85 SW5       29.52F
$$

NHZ002-005-008-009-011-012-014-090400-
NEW HAMPSHIRE

CITY           SKY/WX    TMP DP  RH WIND       PRES   REMARKS
PORTSMOUTH     PTCLDY    33  23  67 W6        29.77F
ROCHESTER      CLEAR     32  19  58 VRB7      29.76F
NASHUA         CLEAR     33  19  56 W6        29.82F
MANCHESTER     PTCLDY    34  18  52 W7        29.79S
CONCORD        PTCLDY    32  22  66 W7        29.79F
LACONIA        PTCLDY    31  21  66 W9G20     29.76S
PLYMOUTH         N/A     31  21  66 W9        29.75F
BERLIN         MOCLDY    29  19  66 SW3       29.67F
WHITEFIELD     MOCLDY    27  21  78 SW7       29.71F
JAFFREY        CLEAR     31  15  52 W9G17     29.78F
KEENE          PTCLDY    32  19  58 SW8       29.83S
LEBANON        MOCLDY    32  21  64 VRB5      29.77S
MT WASHINGTON  SNOWSHWR   7   7 100 W52G66      N/A  VSB 0   WCI -22
$$

VTZ005-007-008-090400-
VERMONT

CITY           SKY/WX    TMP DP  RH WIND       PRES   REMARKS
ST JOHNSBURY     N/A     29  23  78 MISG      29.72F
MONTPELIER     CLOUDY    29  21  72 SW5       29.76F
BURLINGTON     CLOUDY    33  19  56 SW10      29.78S
$$

MAZ007-012-024-CTZ003-RIZ002-NYZ038-NYZ072-090400-
SOUTHERN NEW ENGLAND AND NY

CITY           SKY/WX    TMP DP  RH WIND       PRES   REMARKS
BOSTON         CLEAR     36  20  52 W16G23    29.83S
WORCESTER      CLEAR     30  17  58 W15       29.80S WCI  19
NANTUCKET      CLEAR     39  26  59 NW14      29.84R
PROVIDENCE     PTCLDY    35  23  61 W10       29.87R
HARTFORD       PTCLDY    32  18  56 W7        29.90R
ALBANY         PTCLDY    32  15  49 W10       29.89S
NEW YORK CITY  PTCLDY    38  16  40 W15G23    29.98R
$$

ANZ081-ANZ082-ANZ150-NHZ014-MEZ023>029-090400-
COASTAL MARINE OBSERVATIONS

STATION/POSITION TIME  TEMP    WIND        PRES    WAVE
                       AIR SEA DIR/SP/G            HT/PER
                 (UTC) (F)     (DEG/KT/KT) (MB)    (FT/S)
MOUNT DESERT ROC 0300   39                 1005.0S
MATINICUS ROCK   0200   38     300/ 21/ 25 1005.4F
ISLE OF SHOALS   0200   37     270/ 19/ 21 1008.2R
JEFFREYS LEDGE   0208      51                N/A     6/ 5
CASHES LEDGE BUO 0250   41 50  280/ 21/ 25 1006.1R   6/ 6
GEORGES BANK BUO 0250   47 51              1005.8F   6/ 5
$$

.............KEY..............
   WCI - WIND CHILL
   TC  - TEMPERATURE IN CELSIUS
   VSB - VISIBILITY IN MILES
   HX  - HEAT INDEX
   FAIR- INDICATES FEW OR NO CLOUDS BELOW 12,000 FT, WITH NO
         SIGNIFICANT WEATHER AND/OR OBSTRUCTIONS TO VISIBILITY.





USA.gov is the U.S. government's official web portal to all federal, state and local government web resources and services.